AirNav   Bose Proflight aviation headeet
 
 1643 users online  

CA90 Cadiz Airstrip
Cadiz, California, USA

GOING TO CADIZ?


FAA INFORMATION EFFECTIVE 03 JANUARY 2019

Location

FAA Identifier: CA90
Lat/Long: 34-30-50.0000N / 115-31-10.0000W
34-30.833333N / 115-31.166667W
34.5138889 / -115.5194444
(estimated)
Elevation: 780 ft. / 238 m
Variation: 13E (2000)
From city: 1 mile S of CADIZ, CA
Time zone: UTC -8 (UTC -7 during Daylight Saving Time)
Zip code: 92304

Airport Operations

Airport use: Private use. Permission required prior to landing
Activation date: 04/2002
Control tower: no
ARTCC: LOS ANGELES CENTER
FSS: RIVERSIDE FLIGHT SERVICE STATION
Attendance: UNATNDD
Wind indicator: yes
Segmented circle: no

Nearby radio navigation aids

VOR radial/distance  VOR name  Freq  Var
TNPr012/27.1TWENTYNINE PALMS VORTAC114.2015E

Airport Services

Runway Information

Runway 8/26

Dimensions: 5280 x 49 ft. / 1609 x 15 m
Surface: asphalt
RUNWAY 8  RUNWAY 26
Traffic pattern: leftleft

Airport Ownership and Management from official FAA records

Ownership: Privately-owned
Owner: CADIZ, INC.
P.O. BOX 535
CADIZ, CA 92304
Phone 760-733-4458
AIRPORT ADDRESS: 14100 PEACH RANCH RD, CADIZ, CA 92304
Manager: LESLEY E. THORNBURG
96726 NATIONAL TRAILS HWY
CADIZ, CA 92304
Phone 760-861-0603
ASSISTANT - ARIEL RAMIREZ - SAME PHONE NO.

Instrument Procedures

There are no published instrument procedures at CA90.

Some nearby airports with instrument procedures:

KTNP - Twentynine Palms Airport (31 nm SW)
KEED - Needles Airport (47 nm E)
KHII - Lake Havasu City Airport (57 nm E)
KUDD - Bermuda Dunes Airport (59 nm SW)
KIFP - Laughlin/Bullhead International Airport (61 nm NE)
 
Loc | Ops | Rwys | IFR | FBO | Links
Com | Nav | Svcs | Stats | Notes
Area around CA90 (Cadiz Airstrip)
 
Road maps at: MapQuest Bing Google
 
Aerial photo
No photo
 
Sectional chart

 
Airport distance calculator
Flying to Cadiz Airstrip? Find the distance to fly.

From to CA90

Sunrise and sunset
Times for 23-Jan-2019
 Local
(UTC-8)
 Zulu
(UTC)
Morning civil twilight06:2014:20
Sunrise06:4714:47
Sunset17:0101:01
Evening civil twilight17:2801:28

Current date and time
Zulu (UTC)  23-Jan-2019 17:07:52
Local (UTC-8)  23-Jan-2019 09:07:52
 
METAR
KTNP 
31nm SW 
SuperAWOS
231555Z AUTO 25005KT 10SM 05/M11 A3044
KNXP 
35nm SW 
231656Z 00000KT 7SM FEW200 06/M07 A3049 RMK AO2 SLP313 T00561067
KEED 
47nm E 
231656Z AUTO 36008KT 10SM CLR 10/M06 A3041 RMK AO2 SLP291 T01001061 $
TAF
KNXP 
35nm SW 
2315/2415 VRB06KT 9999 SKC QNH3023INS T04/2315Z T19/2321Z
NOTAMs
Click for the latest NOTAMs
NOTAMs are issued by the DoD/FAA and will open in a separate window not controlled by AirNav.

 

 
 

Would you like to see your business listed on this page?

 If your business provides an interesting product or service to pilots, flight crews, aircraft, or users of the Cadiz Airstrip, you should consider listing it here.  To start the listing process, click on the button below
 
Add a business
 

Other Pages about Cadiz Airstrip

Update a link
 
Copyright © AirNav, LLC. All rights reserved. Privacy Policy  Contact